Location: Most
(50.5133°N, 13.6207°E)
Time: 11:23:18
(UTC+01:00)

ISS - Pass Details

Date: 30 March 2017
Orbit: 399 x 409 km, 51.6° (Epoch: 23 March)

Event Time Altitude Azimuth Distance (km) Brightness Sun altitude
Rises 20:48:26 0° 232° (SW) 2,305 0.4 -12.1°
Reaches altitude 10° 20:50:32 10° 226° (SW) 1,451 -0.7 -12.4°
Maximum altitude 20:53:39 43° 153° (SSE) 575 -3.4 -12.9°
Enters shadow 20:55:14 24° 94° (E) 893 -2.7 -13.1°
